Location: �perlecques
(50.8057°N, 2.1521°E)
Time: 12:37:07
(UTC+00:00)

Vanguard 1 Rocket - Pass Details

Date: 02 August 2021
Orbit: 650 x 4226 km, 34.3° (Epoch: 19 September)

Event Time Altitude Azimuth Distance (km) Brightness Sun altitude
Rises 07:58:18 0° 209° (SSW) 8,381 12.2 32.5°
Reaches altitude 10° 08:06:10 10° 198° (SSW) 7,065 12.0 33.7°
Maximum altitude 08:21:40 25° 154° (SSE) 4,807 11.9 36.1°
Drops below altitude 10° 08:32:20 10° 107° (ESE) 4,793 12.4 37.7°
Sets 08:36:13 0° 95° (E) 5,308 12.2 38.3°
